Cincinnati, OH

4:02 AM EDT on July 28, 2017 (GMT -0400)
Cincinnati Municipal-Lunken

Weather History for KLUK - October, 2011

Change the Weather History Date:

Tuesday, October 4, 2011

  Actual Average Record
Temperature  
Mean Temperature 58 °F -  
Max Temperature 75 °F 72 °F 91 °F (1959)
Min Temperature 42 °F 48 °F 34 °F (1974)
Degree Days  
Heating Degree Days 6    
Growing Degree Days 8 (Base 50)    
Moisture  
Dew Point 48 °F    
Average Humidity 79    
Maximum Humidity 96    
Minimum Humidity 44    
Precipitation  
Precipitation 0.00 in - - ()
Sea Level Pressure  
Sea Level Pressure 30.26 in    
Wind  
Wind Speed 1 mph (SSE)    
Max Wind Speed 4 mph    
Max Gust Speed -    
Visibility 9 miles    
Events Fog    
Averages and records for this station are not official NWS values.
T = Trace of Precipitation, MM = Missing Value Source: NWS Daily Summary

Daily Weather History Graph

Daily Weather History Graph

Search for Another Location

Airport or City:

Trip Planner

Search our weather history database for the weather conditions in past years. The results will help you decide how hot, cold, wet, or windy it might be!

Date:

Astronomy

Oct. 04, 2011 Rise Set
Actual Time 7:36 AM EDT 7:16 PM EDT
Civil Twilight 7:09 AM EDT 7:42 PM EDT
Nautical Twilight 6:38 AM EDT 8:13 PM EDT
Astronomical Twilight 6:07 AM EDT 8:44 PM EDT
Moon 3:14 PM EDT (10/4) 12:22 AM EDT (10/4)
Length of Visible Light 12h 33m
Length of Day
11h 39m
First Quarter, 56% of the Moon is Illuminated
Oct 4
First Quarter
Oct 11
Full
Oct 19
Last Quarter
Oct 26
New
Nov 2
First Quarter

Hourly Weather History & Observations

Time (EDT) Temp. Windchill Dew Point Humidity Pressure Visibility Wind Dir Wind Speed Gust Speed Precip Events Conditions
12:53 AM 48.9 °F - 46.0 °F 90% 30.21 in 10.0 mi Calm Calm - N/A   Clear
1:26 AM 46.4 °F 45.2 °F 44.6 °F 93% 30.20 in 2.5 mi South 3.5 mph - N/A   Clear
1:34 AM 46.4 °F 45.2 °F 44.6 °F 93% 30.20 in 10.0 mi South 3.5 mph - N/A   Clear
1:53 AM 46.9 °F - 44.1 °F 90% 30.21 in 10.0 mi Calm Calm - N/A   Clear
2:53 AM 45.0 °F - 43.0 °F 93% 30.20 in 10.0 mi Calm Calm - N/A   Clear
3:53 AM 45.0 °F - 42.1 °F 90% 30.22 in 4.0 mi Calm Calm - N/A   Clear
4:53 AM 45.0 °F - 43.0 °F 93% 30.25 in 10.0 mi Calm Calm - N/A   Clear
5:53 AM 43.0 °F - 41.0 °F 93% 30.25 in 10.0 mi Calm Calm - N/A   Clear
6:50 AM 42.8 °F - 41.0 °F 93% 30.26 in 10.0 mi Calm Calm - N/A Fog Patches of Fog
6:53 AM 42.8 °F - 41.0 °F 93% 30.27 in 10.0 mi Calm Calm - N/A Fog Patches of Fog
7:53 AM 44.1 °F - 42.1 °F 93% 30.29 in 10.0 mi Calm Calm - N/A Fog Patches of Fog
8:53 AM 48.9 °F - 46.9 °F 93% 30.31 in 10.0 mi Calm Calm - N/A   Clear
10:53 AM 60.1 °F - 50.0 °F 69% 30.32 in 10.0 mi Calm Calm - N/A   Clear
11:53 AM 64.9 °F - 51.1 °F 61% 30.32 in 10.0 mi East 3.5 mph - N/A   Clear
12:53 PM 69.1 °F - 50.0 °F 51% 30.31 in 10.0 mi Calm Calm - N/A   Clear
1:53 PM 69.1 °F - 51.1 °F 53% 30.29 in 10.0 mi Variable 3.5 mph - N/A   Clear
2:53 PM 71.1 °F - 51.1 °F 49% 30.27 in 8.0 mi Calm Calm - N/A   Clear
3:53 PM 73.9 °F - 53.1 °F 48% 30.26 in 10.0 mi Calm Calm - N/A   Clear
4:53 PM 75.0 °F - 52.0 °F 44% 30.25 in 10.0 mi Calm Calm - N/A   Clear
5:53 PM 73.4 °F - 51.8 °F 47% 30.25 in 10.0 mi Calm Calm - N/A   Clear
6:53 PM 66.9 °F - 55.9 °F 68% 30.25 in 10.0 mi Calm Calm - N/A   Clear
7:53 PM 60.8 °F - 55.4 °F 82% 30.25 in 10.0 mi Calm Calm - N/A   Clear
8:53 PM 55.9 °F - 54.0 °F 93% 30.26 in 10.0 mi Calm Calm - N/A   Clear
9:53 PM 55.0 °F - 53.1 °F 93% 30.27 in 10.0 mi Calm Calm - N/A   Clear
10:53 PM 53.1 °F - 52.0 °F 96% 30.28 in 10.0 mi Calm Calm - N/A   Clear
11:53 PM 53.1 °F - 51.1 °F 93% 30.28 in 7.0 mi Calm Calm - N/A   Clear